Location: Bern/Schweiz
(46.9381°N, 7.4364°E)
Time: 22:52:07
(UTC+01:00)

ISS - Pass Details

Date: 25 September 2020
Orbit: 417 x 420 km, 51.6° (Epoch: 27 October)

Event Time Altitude Azimuth Distance (km) Brightness Sun altitude
Rises 21:00:45 0° 281° (W) 2,368 1.8 -17.6°
Reaches altitude 10° 21:02:58 10° 290° (WNW) 1,504 0.4 -17.9°
Maximum altitude 21:06:06 35° 359° (N) 701 -2.5 -18.5°
Enters shadow 21:07:01 29° 34° (NE) 802 -2.5 -18.6°
